Voltar ao catálogo

COSMOS 2251 DEB

AtivoLEO
NORAD 40236·DEBRIS·🇷🇺 Russia

Lançado Jun 16, 1993 de Plesetsk Cosmodrome

Loading…

Próximas Passagens (próximas 24 horas)

TLE

EnvelhecendoSource: Space-Track

Época: Sep 8, 2026, 04:44 UTC

1 40236U 93036BVR 26251.19778901  .00000520  00000-0  58172-3 0  9997
2 40236  73.5366  78.8702 0534466 294.6926  59.9421 13.25153136571930

Acompanhe COSMOS 2251 DEB em tempo real com AllMySat

Download on the App Store